Flag for India Weather past 2 weeks in Hoshiarpur, Punjab, India

Now
82 °F

Fog.


Feels Like: 92 °F
Forecast: 79 / 90 °F
Wind: 5 mph from Southeast

Location: Amritsar Airport

Current Time: Jul 31, 2015 at 11:40:14 PM

Latest Report: Jul 31, 2015 at 11:00 PM


Visibility: 2 mi

Pressure: 29.53 "Hg

Humidity: 89%

Dew point: 79 °F

Location of HoshiarpurLocation

Historic Weather in Hoshiarpur — Graph

°F

Hoshiarpur temperature yesterday

Maximum temperature yesterday: 90 °F (at 10:00 AM)
Minimum temperature yesterday: 82 °F (at 2:00 AM)
Average temperature yesterday: 86 °F

Past Weeks' High & Low Weather Summary

 TemperatureHumidityPressure
High95 °F (Jul 23, 3:30 PM)100% (Jul 17, 1:30 AM)29.68 "Hg (Jul 17, 1:30 AM)
Low75 °F (Jul 17, 1:30 AM)59% (Jul 29, 5:30 PM)29.42 "Hg (Jul 16, 9:30 PM)
Average85 °F86%29.55 "Hg
* Reported Jul 16 9:30 PM — Jul 31 10:00 PM, Hoshiarpur, Weather by CustomWeather, © 2015

Note: Actual official high and low records may vary slightly from our data, if they occured in-between our weather recording intervals... More about our weather records

Advertising

Hoshiarpur weather history for previous 24 hours

 ConditionsComfort  
Time TempWeatherWind HumidityBarometerVisibility
10:00 PM
Fri, Jul 31
82 °FFog.6 mph89%29.53 "Hg2 mi
8:30 PM82 °FFog.2 mph89%29.50 "Hg2 mi
8:00 PM82 °FFog.2 mph89%29.47 "Hg2 mi
7:30 PM82 °FFog.3 mph94%29.47 "Hg2 mi
7:00 PM84 °FFog.3 mph89%29.47 "Hg2 mi
5:30 PM88 °FBroken clouds.8 mph70%29.45 "Hg2 mi
1:00 PM88 °FFog.10 mph70%29.53 "Hg2 mi
10:00 AM84 °FFog.10 mph79%29.53 "Hg2 mi
9:30 AM84 °FFog.9 mph79%29.53 "Hg2 mi
9:00 AM84 °FFog.8 mph79%29.53 "Hg2 mi
8:30 AM82 °FFog.9 mph84%29.50 "Hg2 mi
7:30 AM81 °FFog.6 mph94%29.50 "Hg2 mi
7:00 AM79 °FFog.5 mph100%29.50 "Hg2 mi
6:30 AM81 °FFog.7 mph89%29.50 "Hg2 mi
6:00 AM79 °FFog.2 mph94%29.50 "Hg2 mi
5:30 AM81 °FFog.5 mph89%29.50 "Hg2 mi
3:30 AM81 °FFog.10 mph89%29.47 "Hg2 mi
3:00 AM82 °FFog.9 mph84%29.47 "Hg2 mi
2:30 AM82 °FFog.5 mph89%29.47 "Hg2 mi
2:00 AM82 °FFog.1 mph89%29.47 "Hg2 mi
1:30 AM84 °FFog.5 mph84%29.50 "Hg2 mi
1:00 AM84 °FFog.6 mph79%29.50 "Hg2 mi
Weather by CustomWeather, © 2015

See weather overviewHow to use our weather pages